Regional Weather Roundup
Issued by NWS

Home | Current Version | Previous Version | Text Only | Print | Product List | Glossary On
Versions: 1 2 3 4 5 6 7 8 9 10 11 12 13 14 15 16 17 18 19 20 21 22 23 24 25 26 27
000
ASUS45 KTFX 231310
RWRMT
MONTANA REGIONAL WEATHER ROUNDUP
NATIONAL WEATHER SERVICE GREAT FALLS MT
600 AM MST THU FEB 23 2017

NOTE: "FAIR" INDICATES FEW OR NO CLOUDS BELOW 12000 FEET WITH NO
SIGNIFICANT WEATHER AND/OR OBSTRUCTIONS TO VISIBILITY.

MTZ001>007-043-231400-
WEST OF THE DIVIDE

CITY           SKY/WX    TMP DP  RH WIND       PRES   REMARKS
KALISPELL      CLOUDY    25  21  85 N6        29.95S WCI  18
MISSOULA       CLOUDY    29  28  96 CALM      29.93R
BUTTE          CLOUDY    24  16  71 N8        29.78S WCI  15
MULLAN PASS    CLOUDY    19  15  84 N6        29.82S FOG     WCI  11
ANACONDA         N/A     25  16  68 N9G16     29.83R WCI  15
DEER LODGE       N/A     27  16  63 N9        29.88S WCI  17
EUREKA           N/A     23  19  86 CALM      30.01S
HAMILTON         N/A     28  27  93 NW5       29.88
LIBBY            N/A     21  19  93 CALM      30.01R
PLAINS           N/A     25  19  77 CALM      29.98R
RONAN            N/A     23  18  81 N1        29.97R
$$

MTZ008-052>055-231400-
SOUTHWEST MONTANA

CITY           SKY/WX    TMP DP  RH WIND       PRES   REMARKS
BOZEMAN        CLOUDY    28  23  81 NW6       29.81S WCI  22
DILLON         CLOUDY    26  18  71 NE20      29.72F WCI  12
W YELLOWSTONE  CLOUDY    14  12  92 CALM      29.67F
ENNIS          CLOUDY    23  21  93 N18G25    29.78S WCI   9
THREE FORKS      N/A     30 -29   7 N6        29.84S WCI  24
TWIN BRIDGES     N/A     26  17  68 S20       29.76F WCI  12
$$

MTZ009-010-012-014-046-048-049-054-231400-
EAST SLOPES AND CENTRAL MONTANA

CITY           SKY/WX    TMP DP  RH WIND       PRES   REMARKS
CUT BANK       CLOUDY    20  18  92 NE6       29.99R WCI  12
GREAT FALLS    CLOUDY    26  23  88 NE9       29.94S WCI  17
MALMSTROM AFB  FLURRIES  27  27 100 NE14      29.96S WCI  15
HELENA         CLOUDY    30  22  72 N7        29.89R WCI  23
AUGUSTA        SNOWSHWR  24  24 100 NE14      29.92R FOG     WCI  11
BOWMANS CRNR   LGT SNOW  23  23  99 NE14      29.90R VSB 3/4 WCI  10
CHOTEAU          N/A     25  25 100 NE10      29.97S WCI  15
CONRAD           N/A     25  24  96 N5        30.00R
POWER          FLURRIES  25  25  98 NE10      29.95R WCI  15
RAYNESFORD     FLURRIES  26  25  96 NW5       29.93R
ULM            FLURRIES  27  25  91 MISG      29.94R
$$

MTZ011-013-016-021-045-047-050-051-231400-
NORTH CENTRAL MONTANA

CITY           SKY/WX    TMP DP  RH WIND       PRES   REMARKS
HAVRE          CLOUDY    24  21  88 NE17      30.03R WCI  11
LEWISTOWN      LGT SNOW  24  22  91 N5        29.90S FOG
N BAR RANCH    SNOW      23  23 100 E7        29.91S VSB 1/2 WCI  15
CHINOOK          N/A     27  21  80 E6        30.05R WCI  20
DENTON         MOCLDY    25  24  98 E12       29.92R WCI  14
FORT BENTON      N/A     28  27  93 CALM      30.01R
GEYSER         LGT SNOW  25  24  97 NE10      29.92R FOG     WCI  14
GRASS RANGE    FLURRIES  24  23  98 NE10      29.90R WCI  13
JUDITH GAP     SNOW      23  21  94 N21       29.86S VSB 3/8 WCI   8
ROY            FLURRIES  24  23  99 MISG      29.94R
STANFORD       SNOWSHWR  23  23  99 N12       29.90R FOG     WCI  12
WINIFRED       FLURRIES  24  24  99 E12       29.94R WCI  13
$$

MTZ017>020-022>027-061-062-231400-
NORTHEAST MONTANA

CITY           SKY/WX    TMP DP  RH WIND       PRES   REMARKS
GLASGOW        CLOUDY    26  24  92 S3        30.02R FOG
JORDAN           N/A     21  17  84 CALM      29.99R
SIDNEY         CLOUDY    26  24  92 CALM      30.03S
WOLF POINT     CLOUDY    27  25  92 S3        30.04S
PLENTYWOOD       N/A     25  25 100 NE15      30.03R VSB 3/4 WCI  12
POPLAR           N/A     27  25  93 CALM      30.04R
SCOBEY           N/A     27  20  75 N8        30.00R WCI  19
$$

MTZ028>42-056>058-231400-
SOUTHCENTRAL AND SOUTHEAST MONTANA

CITY           SKY/WX    TMP DP  RH WIND       PRES   REMARKS
BAKER          CLOUDY    26  23  88 NE12      29.94F WCI  16
BILLINGS       CLOUDY    28  26  92 E9        29.89R WCI  19
LIVINGSTON     FLURRIES  26  23  88 E18       29.80F WCI  13
MILES CITY     CLOUDY    29  25  85 NE10      29.95F WCI  20
BIG TIMBER     CLOUDY    27  27 100 E7        29.87F FOG     WCI  19
EKALAKA          N/A     25  22  88 NE6       29.88  WCI  18
FORSYTH          N/A     28  27  93 CALM      29.93F
HARLOWTON      FLURRIES  25  23  91 NE12      29.87R WCI  14
LAUREL           N/A     27  23  84 CALM      29.88R
$$

REGIONAL REPORTS...DAKOTAS

CITY           SKY/WX    TMP DP  RH WIND       PRES   REMARKS
WILLISTON      CLOUDY    29  26  89 SW6       30.02S WCI  23
MINOT          CLOUDY    28  24  85 N17       30.02S WCI  16
DICKINSON      CLOUDY    25  23  92 N6        29.95F FOG     WCI  18
BEACH            N/A    N/A N/A N/A MISG        N/A
CROSBY         LGT SNOW  25  25 100 NE13      30.08R WCI  13
TIOGA          CLOUDY    28  28 100 NW9       30.02R WCI  20
WATFORD CITY   MOCLDY    25  25 100 SW3       30.02S FOG
BISMARCK       CLOUDY    28  25  88 CALM      30.01S
GRAND FORKS    CLOUDY    29  20  69 N5        30.05S
FARGO          CLOUDY    30  24  78 N12       30.02S WCI  20
BUFFALO SD       N/A     28  26  92 NE13      29.84S WCI  17
RAPID CITY     CLOUDY    27  25  92 NE13      29.86R FOG     WCI  16
$$

REGIONAL REPORTS...WYOMING/IDAHO/WASHINGTON

CITY           SKY/WX    TMP DP  RH WIND       PRES   REMARKS
GILLETTE       CLOUDY    27  24  89 NE17      29.78F WCI  14
SHERIDAN       CLOUDY    28  26  92 VRB7      29.83S WCI  21
BUFFALO WY     CLOUDY    27  23  85 N9        29.79S WCI  18
CODY           FLURRIES  24  22  91 N14G24    29.77R WCI  12
YELLOWSTONE LA   N/A     14   8  77 VRB3      29.63F
IDAHO FALLS    LGT SNOW  27  26  96 S9        29.63R FOG     WCI  18
SALMON         CLOUDY    30  25  80 CALM      29.74S
BOISE          CLOUDY    31  24  75 NW18      29.83R WCI  19
SPOKANE        FOG       22  21  96 N3        30.02R VSB 1/4
$$

REGIONAL REPORTS...ALBERTA

CITY           SKY/WX    TMP DP  RH WIND       PRES   REMARKS
EDMONTON       CLOUDY    21  18  86 CALM      30.07S
CALGARY        LGT SNOW  19  18  93 VRB2      30.02S FOG
LETHBRIDGE     FLURRIES  23  21  93 NE5       30.06R
MEDICINE HAT   FOG       14  12  92 SW3       30.10R VSB 3/8
WATERTON GATE    N/A     19  18  93 E3          N/A
CARDSTON         N/A     21  19  93 N1          N/A
MILK RIVER       N/A     21  18  86 NE9         N/A  WCI  11
$$

REGIONAL REPORTS...SASKATCHEWAN

CITY           SKY/WX    TMP DP  RH WIND       PRES   REMARKS
SWIFT CURRENT  PTCLDY    16  14  93 N2        30.05R
REGINA         MOCLDY    23  12  63 VRB2      30.07S
SASKATOON      MOCLDY    21  16  79 NW8       30.09S WCI  12
ROCKGLEN         N/A     21  19  93 NE9         N/A  WCI  11
ASSINIBOIA       N/A     21  19  93 W3          N/A
$$




USA.gov is the U.S. government's official web portal to all federal, state and local government web resources and services.